Find Kosmos-1058

NORAD ID: 11135 Int'l Des: 1978-109 Owner: GUKOSR Country: SU operational
LEOCIRCULAR

Aktuelle Ansicht

3D-Globus wird geladen...

Über Kosmos-1058

Beschreibung wird geladen...

Nächste Überflüge

Passes for default location (London). Set your location on the main map for personalized predictions.

Höhenverlauf

Loading altitude history...

Zweizeiliger Elementsatz

1 11135U 78109H 26150.20160698 -.00000018 00000-0 -18382-4 0 9999
2 11135 74.0181 64.6426 0036999 268.9660 243.5018 12.39502945148438
Epoch: 30. Mai 2026 • Age: 5 hours

Aktueller Status

Höhe 1527.1 km
Geschwindigkeit 7.10 km/s
Subsatellitenpunkt 29.13°N, 35.71°E
Startdatum 5. Dez. 1978
Alter 47.4 years
Typ other

Technische Details

Klassifizierung Payload
Masse 60.00 kg
Trockenmasse 60.00 kg
Gesamtmasse 60.00 kg
Länge 0.80 m
Durchmesser 0.80 m
Spannweite 0.80 m
Form Poly
Hersteller NPOPM
Bus-Typ Strela-1 11F625
Phasenstatus In Orbit
Besitzer/Staat GUKOSR/SU

Most Searched